FW6683 Weather Reports


Display with metric or nautical units.
time (UTC)temp
F
wind
direction
speed
MPH
gust
MPH
rain 1hr
in
rain 24hr
in
rain mn
in
humidity
%
barometer
mb
20240227105053 49 252 4.0 14.0 0.00 0.01 0.01 89 1015.6
20240227104550 49 240 2.0 14.0 0.00 0.01 0.01 89 1015.5
20240227104049 49 255 1.0 10.0 0.00 0.01 0.01 89 1015.4
20240227103548 48 185 3.0 10.0 0.00 0.01 0.01 90 1015.5
20240227103046 48 256 1.0 10.0 0.00 0.01 0.01 90 1015.2
20240227102545 48 314 3.0 12.0 0.00 0.01 0.01 89 1015.0
20240227102043 48 231 3.0 8.0 0.00 0.01 0.01 90 1015.3
20240227101548 48 245 3.0 11.0 0.00 0.01 0.01 90 1015.2
20240227101040 47 224 2.0 7.0 0.00 0.01 0.01 90 1015.2
20240227100538 47 147 3.0 9.0 0.00 0.01 0.01 90 1015.1
20240227100037 47 228 3.0 9.0 0.00 0.01 0.01 90 1015.2
20240227095539 47 231 2.0 8.0 0.00 0.01 0.01 90 1015.2
20240227095036 47 221 2.0 8.0 0.00 0.01 0.01 90 1015.3
20240227094537 47 243 3.0 8.0 0.00 0.01 0.01 90 1015.1
20240227094032 47 231 2.0 11.0 0.00 0.01 0.01 90 1015.3
20240227093532 47 259 4.0 11.0 0.00 0.01 0.01 90 1015.4
20240227093032 46 266 3.0 10.0 0.00 0.01 0.01 90 1015.5
20240227092531 46 214 3.0 9.0 0.00 0.01 0.01 90 1015.4
20240227092029 46 132 3.0 9.0 0.00 0.01 0.01 90 1015.2
20240227091529 46 217 2.0 11.0 0.00 0.01 0.01 90 1015.5
20240227091029 46 229 2.0 11.0 0.00 0.01 0.01 90 1015.4
20240227090530 46 264 4.0 13.0 0.00 0.01 0.01 90 1015.6
20240227090027 46 244 4.0 13.0 0.00 0.01 0.01 90 1015.5
20240227085524 46 167 4.0 11.0 0.00 0.01 0.01 90 1015.5
20240227085024 45 210 3.0 11.0 0.00 0.01 0.01 90 1015.4
20240227084532 45 214 2.0 9.0 0.00 0.01 0.01 90 1015.4
20240227084021 45 269 2.0 13.0 0.00 0.01 0.01 90 1015.4
20240227083519 45 115 2.0 13.0 0.00 0.01 0.01 90 1015.4
20240227083019 45 213 3.0 10.0 0.00 0.01 0.01 90 1015.3
20240227082517 45 217 3.0 12.0 0.00 0.01 0.01 90 1015.5
20240227082016 45 231 3.0 9.0 0.01 0.01 0.01 90 1015.4
20240227081533 45 209 2.0 8.0 0.01 0.01 0.01 90 1015.7
20240227081014 44 218 2.0 8.0 0.01 0.01 0.01 90 1015.5
20240227080512 44 1 2.0 6.0 0.01 0.01 0.01 90 1015.7
20240227080011 44 172 2.0 7.0 0.01 0.01 0.01 90 1015.8
20240227075510 44 252 2.0 7.0 0.01 0.01 0.01 90 1015.8
20240227075009 44 274 2.0 10.0 0.01 0.01 0.01 89 1016.0
20240227074510 44 216 3.0 9.0 0.01 0.01 0.01 89 1016.0
20240227074008 44 195 4.0 9.0 0.01 0.01 0.01 89 1016.1
20240227073508 44 192 2.0 9.0 0.01 0.01 0.01 89 1016.1
20240227073009 44 211 2.0 8.0 0.01 0.01 0.01 89 1016.3
20240227072506 44 243 4.0 11.0 0.00 0.00 0.00 88 1016.5
20240227072006 44 213 3.0 11.0 0.00 0.00 0.00 87 1016.7
20240227071505 45 202 3.0 8.0 0.00 0.00 0.00 86 1016.5
20240227071004 45 210 3.0 8.0 0.00 0.00 0.00 85 1016.6
20240227070502 45 215 3.0 7.0 0.00 0.00 0.00 84 1016.9
20240227070005 45 288 2.0 8.0 0.00 0.00 0.00 83 1017.0
20240227065503 45 219 2.0 14.0 0.00 0.00 0.00 83 1017.0
20240227065002 45 233 3.0 14.0 0.00 0.00 0.00 83 1016.9
20240227064502 45 335 2.0 9.0 0.00 0.00 0.00 83 1017.0
20240227064001 45 219 2.0 11.0 0.00 0.00 0.00 83 1017.0
20240227063600 45 229 4.0 11.0 0.00 0.00 0.00 83 1017.4
20240227063101 45 30 2.0 7.0 0.00 0.00 0.00 83 1017.7
20240227063002 45 244 3.0 7.0 0.00 0.00 0.00 83 1017.6
20240227062558 45 210 2.0 10.0 0.00 0.00 0.00 82 1017.6
20240227062100 45 23 2.0 10.0 0.00 0.00 0.00 82 1017.8
20240227061609 45 276 3.0 9.0 0.00 0.00 0.00 82 1017.8
20240227061055 45 237 2.0 6.0 0.00 0.00 0.00 81 1018.1
20240227060555 45 296 2.0 9.0 0.00 0.00 0.00 81 1018.3
20240227060054 45 242 3.0 9.0 0.00 0.00 0.00 81 1018.3
20240227055553 45 217 2.0 8.0 0.00 0.00 0.00 81 1018.4
20240227055056 45 188 4.0 8.0 0.00 0.00 0.00 81 1018.5
20240227054552 45 224 2.0 8.0 0.00 0.00 0.00 82 1018.5
20240227054051 44 226 2.0 8.0 0.00 0.00 0.00 81 1018.6
20240227053553 44 251 2.0 12.0 0.00 0.00 0.00 81 1018.6
20240227053051 45 193 2.0 11.0 0.00 0.00 0.00 81 1018.7
20240227052550 45 295 1.0 11.0 0.00 0.00 0.00 81 1018.7
20240227052151 44 289 3.0 7.0 0.00 0.00 0.00 81 1018.9
20240227051549 44 215 2.0 6.0 0.00 0.00 0.00 80 1019.0
20240227051048 44 202 1.0 6.0 0.00 0.00 0.00 79 1018.8
20240227050549 44 177 1.0 7.0 0.00 0.00 0.00 79 1019.0
20240227050045 44 244 3.0 7.0 0.00 0.00 0.00 78 1019.0
20240227045545 43 283 2.0 6.0 0.00 0.00 0.00 78 1019.1
20240227045043 43 162 2.0 6.0 0.00 0.00 0.00 78 1019.2
20240227044543 43 70 2.0 6.0 0.00 0.00 0.00 78 1019.0
20240227044044 43 236 2.0 6.0 0.00 0.00 0.00 77 1019.1
20240227043542 43 107 0.0 5.0 0.00 0.00 0.00 76 1019.0
20240227043041 43 231 1.0 7.0 0.00 0.00 0.00 76 1019.0
20240227042541 43 219 1.0 7.0 0.00 0.00 0.00 75 1019.3
20240227042040 43 322 1.0 4.0 0.00 0.00 0.00 75 1019.4
20240227041540 43 233 1.0 4.0 0.00 0.00 0.00 74 1019.5
20240227041040 43 230 1.0 5.0 0.00 0.00 0.00 74 1019.6
20240227040541 43 200 2.0 6.0 0.00 0.00 0.00 74 1019.7
20240227040038 43 248 2.0 7.0 0.00 0.00 0.00 74 1019.8
20240227035537 43 209 1.0 7.0 0.00 0.00 0.00 74 1019.8
20240227035041 43 224 2.0 6.0 0.00 0.00 0.00 74 1019.9
20240227034549 43 260 1.0 4.0 0.00 0.00 0.00 75 1020.1
20240227034035 43 208 0.0 3.0 0.00 0.00 0.00 75 1020.3
20240227033544 42 55 1.0 3.0 0.00 0.00 0.00 75 1020.3
20240227033037 43 195 1.0 6.0 0.00 0.00 0.00 75 1020.1
20240227032534 43 186 2.0 7.0 0.00 0.00 0.00 75 1020.1
20240227032034 43 192 3.0 7.0 0.00 0.00 0.00 74 1020.3
20240227031539 43 238 2.0 7.0 0.00 0.00 0.00 74 1020.4
20240227031035 43 216 3.0 9.0 0.00 0.00 0.00 74 1020.5
20240227030531 43 231 3.0 9.0 0.00 0.00 0.00 74 1020.9
20240227030035 43 278 1.0 8.0 0.00 0.00 0.00 75 1021.0
20240227025535 43 245 2.0 6.0 0.00 0.00 0.00 75 1021.2
20240227025029 43 246 3.0 7.0 0.00 0.00 0.00 75 1021.3
20240227024528 43 248 2.0 7.0 0.00 0.00 0.00 76 1021.4
20240227024027 43 257 1.0 6.0 0.00 0.00 0.00 76 1021.6
20240227023528 43 220 0.0 9.0 0.00 0.00 0.00 76 1021.6
20240227023026 42 234 2.0 9.0 0.00 0.00 0.00 76 1021.7
20240227022524 42 274 2.0 6.0 0.00 0.00 0.00 77 1021.8
20240227022023 42 255 1.0 6.0 0.00 0.00 0.00 77 1022.1
20240227021523 42 281 1.0 8.0 0.00 0.00 0.00 78 1022.1
20240227021022 42 267 1.0 7.0 0.00 0.00 0.00 78 1022.1
20240227020520 42 306 1.0 7.0 0.00 0.00 0.00 79 1022.3
20240227020020 42 261 0.0 6.0 0.00 0.00 0.00 80 1022.5
20240227015519 41 280 0.0 4.0 0.00 0.00 0.00 80 1022.5
20240227015018 41 283 1.0 4.0 0.00 0.00 0.00 80 1022.5
20240227014518 41 243 0.0 3.0 0.00 0.00 0.00 80 1022.7
20240227014018 41 243 0.0 2.0 0.00 0.00 0.00 79 1022.7
20240227013518 41 243 0.0 5.0 0.00 0.00 0.00 79 1022.9
20240227013025 41 243 0.0 5.0 0.00 0.00 0.00 79 1022.7
20240227012516 41 272 0.0 7.0 0.00 0.00 0.00 79 1022.7
20240227012016 41 260 3.0 7.0 0.00 0.00 0.00 79 1022.6
20240227011519 41 271 2.0 6.0 0.00 0.00 0.00 79 1022.5
20240227011020 41 240 2.0 5.0 0.00 0.00 0.00 78 1022.4
20240227010516 41 265 0.0 7.0 0.00 0.00 0.00 78 1022.3
20240227010014 41 243 1.0 4.0 0.00 0.00 0.00 78 1022.4
20240227005513 41 241 1.0 3.0 0.00 0.00 0.00 78 1022.5
20240227005012 41 275 0.0 3.0 0.00 0.00 0.00 78 1022.7
20240227004511 41 232 0.0 2.0 0.00 0.00 0.00 79 1022.7
20240227004009 41 236 0.0 2.0 0.00 0.00 0.00 79 1022.7
20240227003509 41 211 0.0 3.0 0.00 0.00 0.00 79 1022.9
20240227003012 40 211 0.0 3.0 0.00 0.00 0.00 79 1023.1
20240227002507 40 211 0.0 4.0 0.00 0.00 0.00 80 1023.1
20240227002006 40 211 1.0 4.0 0.00 0.00 0.00 80 1023.1
20240227001509 40 191 0.0 2.0 0.00 0.00 0.00 80 1023.2
20240227001004 40 191 0.0 2.0 0.00 0.00 0.00 81 1023.3
20240227000503 40 191 0.0 3.0 0.00 0.00 0.00 81 1023.3
20240227000003 39 191 1.0 3.0 0.00 0.00 0.00 82 1023.3
20240226235504 39 191 0.0 3.0 0.00 0.00 0.00 82 1023.4
20240226235002 39 192 0.0 1.0 0.00 0.00 0.00 82 1023.5
20240226234502 39 192 0.0 2.0 0.00 0.00 0.00 82 1023.5
20240226234002 39 192 0.0 2.0 0.00 0.00 0.00 82 1023.6
20240226233503 39 192 0.0 2.0 0.00 0.00 0.00 83 1023.6
20240226233001 38 192 0.0 2.0 0.00 0.00 0.00 83 1023.6
20240226232504 38 192 0.0 2.0 0.00 0.00 0.00 83 1023.7
20240226232002 38 192 0.0 2.0 0.00 0.00 0.00 83 1024.0
20240226231502 38 192 0.0 2.0 0.00 0.00 0.00 83 1024.0
20240226231002 38 192 0.0 3.0 0.00 0.00 0.00 83 1024.0
20240226230502 38 191 0.0 3.0 0.00 0.00 0.00 83 1023.9
20240226230001 38 191 0.0 3.0 0.00 0.00 0.00 84 1024.1
20240226225502 38 192 1.0 4.0 0.00 0.00 0.00 84 1024.1
20240226225000 38 198 2.0 4.0 0.00 0.00 0.00 84 1024.3
20240226224600 38 200 1.0 3.0 0.00 0.00 0.00 84 1024.3
20240226224100 38 201 1.0 3.0 0.00 0.00 0.00 85 1024.3
20240226223600 37 201 1.0 3.0 0.00 0.00 0.00 85 1024.5
20240226223104 37 201 1.0 3.0 0.00 0.00 0.00 84 1024.3
20240226222600 37 201 0.0 2.0 0.00 0.00 0.00 84 1024.1
20240226222102 37 201 0.0 3.0 0.00 0.00 0.00 84 1024.2
20240226221600 37 201 0.0 3.0 0.00 0.00 0.00 85 1024.3
20240226221100 37 201 1.0 3.0 0.00 0.00 0.00 85 1024.3
20240226220602 37 202 1.0 3.0 0.00 0.00 0.00 85 1024.4
20240226220100 37 202 1.0 3.0 0.00 0.00 0.00 85 1024.5
20240226215600 37 202 1.0 2.0 0.00 0.00 0.00 85 1024.5
20240226215101 37 203 0.0 3.0 0.00 0.00 0.00 85 1024.4
20240226214611 37 203 1.0 3.0 0.00 0.00 0.00 85 1024.4
20240226214058 37 203 1.0 3.0 0.00 0.00 0.00 86 1024.3
20240226213558 37 203 1.0 2.0 0.00 0.00 0.00 86 1024.2
20240226213103 37 202 0.0 3.0 0.00 0.00 0.00 86 1024.1
20240226212558 37 202 1.0 3.0 0.00 0.00 0.00 86 1024.1
20240226212100 37 203 1.0 2.0 0.00 0.00 0.00 85 1024.2
20240226211557 37 203 0.0 2.0 0.00 0.00 0.00 86 1024.3
20240226211102 37 203 1.0 2.0 0.00 0.00 0.00 86 1024.2
20240226210559 37 203 0.0 3.0 0.00 0.00 0.00 86 1024.2
20240226210059 37 203 1.0 3.0 0.00 0.00 0.00 86 1024.3
20240226205556 37 231 1.0 3.0 0.00 0.00 0.00 86 1024.3
20240226205059 37 256 0.0 2.0 0.00 0.00 0.00 86 1024.3
20240226204616 37 256 0.0 2.0 0.00 0.00 0.00 86 1024.4
20240226204056 37 256 0.0 2.0 0.00 0.00 0.00 86 1024.2
20240226203557 37 256 1.0 2.0 0.00 0.00 0.00 85 1024.1
20240226203056 37 256 1.0 2.0 0.00 0.00 0.00 85 1024.2
20240226202557 38 256 0.0 2.0 0.00 0.00 0.00 85 1024.5
20240226202056 38 256 0.0 2.0 0.00 0.00 0.00 85 1024.4
20240226201558 38 256 0.0 2.0 0.00 0.00 0.00 85 1024.3
20240226201056 38 256 0.0 2.0 0.00 0.00 0.00 85 1024.3
20240226200558 38 256 0.0 2.0 0.00 0.00 0.00 85 1024.2
20240226200055 38 259 1.0 2.0 0.00 0.00 0.00 84 1024.2
20240226195556 38 259 0.0 2.0 0.00 0.00 0.00 84 1024.2
20240226195057 38 259 0.0 2.0 0.00 0.00 0.00 84 1024.4
20240226194558 38 259 0.0 2.0 0.00 0.00 0.00 84 1024.2
20240226194054 38 259 0.0 3.0 0.00 0.00 0.00 84 1024.2
20240226193558 38 259 0.0 3.0 0.00 0.00 0.00 84 1024.3
20240226193059 38 273 1.0 2.0 0.00 0.00 0.00 83 1024.3
20240226192558 38 273 0.0 2.0 0.00 0.00 0.00 82 1024.3
20240226192054 38 273 0.0 2.0 0.00 0.00 0.00 82 1024.3
20240226191554 39 273 1.0 2.0 0.00 0.00 0.00 82 1024.2
20240226191057 39 273 1.0 2.0 0.00 0.00 0.00 82 1024.4
20240226190554 39 273 1.0 2.0 0.00 0.00 0.00 82 1024.4
20240226190104 39 273 0.0 2.0 0.00 0.00 0.00 82 1024.3
20240226185553 39 273 1.0 2.0 0.00 0.00 0.00 81 1024.4
20240226185054 39 273 1.0 2.0 0.00 0.00 0.00 81 1024.5
20240226184556 39 273 1.0 2.0 0.00 0.00 0.00 80 1024.3
20240226184053 40 273 1.0 2.0 0.00 0.00 0.00 80 1024.5
20240226183553 40 273 0.0 2.0 0.00 0.00 0.00 79 1024.6
20240226183053 40 273 1.0 2.0 0.00 0.00 0.00 79 1024.6
20240226182554 41 273 1.0 2.0 0.00 0.00 0.00 78 1024.4
20240226182051 41 273 0.0 2.0 0.00 0.00 0.00 78 1024.3
20240226181600 42 273 0.0 2.0 0.00 0.00 0.00 77 1024.1
20240226181050 42 273 0.0 3.0 0.00 0.00 0.00 77 1024.0
20240226180552 42 273 0.0 2.0 0.00 0.00 0.00 76 1024.0
20240226180049 43 273 0.0 1.0 0.00 0.00 0.00 76 1024.0
20240226175548 43 274 0.0 4.0 0.00 0.00 0.00 76 1024.0
20240226175047 43 273 1.0 4.0 0.00 0.00 0.00 76 1023.8
20240226174546 43 301 1.0 2.0 0.00 0.00 0.00 76 1023.7
20240226174046 44 301 0.0 1.0 0.00 0.00 0.00 75 1023.6
20240226173551 44 301 0.0 1.0 0.00 0.00 0.00 75 1023.6
20240226173046 44 301 0.0 2.0 0.00 0.00 0.00 74 1023.6
20240226172546 44 302 0.0 3.0 0.00 0.00 0.00 74 1023.7
20240226172045 44 303 1.0 2.0 0.00 0.00 0.00 74 1023.6
20240226171545 44 311 1.0 3.0 0.00 0.00 0.00 74 1023.6
20240226171046 44 313 1.0 3.0 0.00 0.00 0.00 74 1023.7
20240226170545 44 304 0.0 3.0 0.00 0.00 0.00 74 1023.8
20240226170045 44 300 0.0 2.0 0.00 0.00 0.00 73 1023.8
20240226165546 44 300 0.0 3.0 0.00 0.00 0.00 73 1023.8
20240226165044 45 299 0.0 7.0 0.00 0.00 0.00 72 1023.8
20240226164544 45 1 1.0 7.0 0.00 0.00 0.00 71 1023.7
20240226164042 45 351 2.0 5.0 0.00 0.00 0.00 71 1023.6
20240226163541 45 307 2.0 7.0 0.00 0.00 0.00 72 1023.4
20240226163040 45 335 2.0 7.0 0.00 0.00 0.00 73 1023.3
20240226162544 45 359 2.0 4.0 0.00 0.00 0.00 73 1023.3
20240226162040 45 309 1.0 3.0 0.00 0.00 0.00 72 1023.2
20240226161559 45 278 1.0 5.0 0.00 0.00 0.00 72 1023.1
20240226161039 45 288 3.0 6.0 0.00 0.00 0.00 71 1023.0
20240226160542 45 294 2.0 6.0 0.00 0.00 0.00 71 1023.1
20240226160039 46 327 2.0 6.0 0.00 0.00 0.00 72 1023.1
20240226155538 46 286 1.0 6.0 0.00 0.00 0.00 71 1023.1
20240226155038 46 346 3.0 6.0 0.00 0.00 0.00 70 1023.2
20240226154539 46 286 2.0 5.0 0.00 0.00 0.00 70 1023.2
20240226154039 45 3 2.0 6.0 0.00 0.00 0.00 70 1023.2
20240226153538 45 359 2.0 7.0 0.00 0.00 0.00 69 1023.2
20240226153037 45 1 3.0 10.0 0.00 0.00 0.00 69 1023.1
20240226152535 45 354 3.0 10.0 0.00 0.00 0.00 70 1023.0
20240226152036 45 334 2.0 6.0 0.00 0.00 0.00 72 1022.9
20240226151536 45 302 3.0 6.0 0.00 0.00 0.00 71 1022.8
20240226151035 45 297 2.0 8.0 0.00 0.00 0.00 72 1022.9
20240226150534 45 333 4.0 9.0 0.00 0.00 0.00 71 1022.8
20240226150033 45 349 3.0 9.0 0.00 0.00 0.00 71 1022.9
20240226145533 45 359 2.0 8.0 0.00 0.00 0.00 72 1022.8
20240226145032 46 4 4.0 8.0 0.00 0.00 0.00 71 1022.7
20240226144532 46 342 2.0 9.0 0.00 0.00 0.00 72 1022.7
20240226144033 46 1 3.0 10.0 0.00 0.00 0.00 71 1022.7
20240226143531 46 328 4.0 10.0 0.00 0.00 0.00 72 1022.6
20240226143032 46 345 3.0 9.0 0.00 0.00 0.00 73 1022.6
20240226142532 45 7 3.0 10.0 0.00 0.00 0.00 72 1022.6
20240226142031 45 354 3.0 8.0 0.00 0.00 0.00 72 1022.7
20240226141530 46 308 3.0 14.0 0.00 0.00 0.00 71 1022.8
20240226141030 46 323 3.0 14.0 0.00 0.00 0.00 71 1022.6
20240226140533 46 276 5.0 11.0 0.00 0.00 0.00 71 1022.7
20240226140027 46 335 3.0 12.0 0.00 0.00 0.00 73 1022.7
20240226135528 46 324 3.0 12.0 0.00 0.00 0.00 72 1022.6
20240226135031 46 311 3.0 10.0 0.00 0.00 0.00 73 1022.6
20240226134527 46 359 4.0 10.0 0.00 0.00 0.00 72 1022.7
20240226134025 46 360 4.0 11.0 0.00 0.00 0.00 73 1022.7
20240226133524 46 347 4.0 11.0 0.00 0.00 0.00 74 1022.7
20240226133024 46 359 4.0 9.0 0.00 0.00 0.00 73 1022.6
20240226132622 45 360 5.0 9.0 0.00 0.00 0.00 73 1022.6
20240226132020 45 359 3.0 9.0 0.00 0.00 0.00 75 1022.4
20240226131531 45 1 4.0 11.0 0.00 0.00 0.00 74 1022.5
20240226131020 45 349 5.0 11.0 0.00 0.00 0.00 74 1022.6
20240226130519 45 356 5.0 10.0 0.00 0.00 0.00 75 1022.5
20240226130022 44 50 4.0 9.0 0.00 0.00 0.00 76 1022.6
20240226125516 44 323 3.0 9.0 0.00 0.00 0.00 77 1022.5
20240226125016 44 348 4.0 9.0 0.00 0.00 0.00 76 1022.5
20240226124521 44 321 3.0 10.0 0.00 0.00 0.00 77 1022.4
20240226124018 44 338 4.0 10.0 0.00 0.00 0.00 78 1022.4
20240226123515 44 311 3.0 8.0 0.00 0.00 0.00 79 1022.5
20240226123023 44 355 3.0 8.0 0.00 0.00 0.00 79 1022.5
20240226122518 44 285 3.0 8.0 0.00 0.00 0.00 79 1022.6
20240226122015 44 356 3.0 8.0 0.00 0.00 0.00 79 1022.6
20240226121514 44 336 4.0 8.0 0.00 0.00 0.00 80 1022.4
20240226121014 44 326 2.0 9.0 0.00 0.00 0.00 81 1022.4
20240226120515 44 327 3.0 9.0 0.00 0.00 0.00 81 1022.4
20240226120012 44 1 3.0 9.0 0.00 0.00 0.00 80 1022.3
20240226115511 44 310 3.0 10.0 0.00 0.00 0.00 80 1022.3
20240226115012 44 314 4.0 10.0 0.00 0.00 0.00 80 1022.1
20240226114510 44 315 5.0 11.0 0.00 0.00 0.00 80 1022.1
20240226114008 43 360 5.0 11.0 0.00 0.00 0.00 80 1021.9
20240226113512 43 11 4.0 11.0 0.00 0.00 0.00 80 1021.7
20240226113008 43 359 3.0 9.0 0.00 0.00 0.00 81 1021.8
20240226112507 43 250 3.0 10.0 0.00 0.00 0.00 81 1021.8
20240226112006 43 335 4.0 10.0 0.00 0.00 0.00 81 1021.5
20240226111508 43 349 4.0 9.0 0.00 0.00 0.00 81 1021.4
20240226111007 43 25 3.0 9.0 0.00 0.00 0.00 82 1021.3
20240226110504 43 345 4.0 9.0 0.00 0.00 0.00 83 1021.3
20240226110003 43 360 4.0 9.0 0.00 0.00 0.00 84 1021.2
20240226105502 43 9 3.0 7.0 0.00 0.00 0.00 85 1021.1